Weather History for KHEZ - March, 2014

Change the Weather History Date:

Thursday, March 27, 2014

  Actual Average Record
Temperature  
Mean Temperature 58 °F -  
Max Temperature 69 °F 72 °F 89 °F (1935)
Min Temperature 48 °F 50 °F 27 °F (1955)
Degree Days  
Heating Degree Days 6    
Growing Degree Days 8 (Base 50)    
Moisture  
Dew Point 50 °F    
Average Humidity 71    
Maximum Humidity 94    
Minimum Humidity 54    
Precipitation  
Precipitation 1.13 in - - ()
Sea Level Pressure  
Sea Level Pressure 30.01 in    
Wind  
Wind Speed 14 mph (SSE)    
Max Wind Speed 23 mph    
Max Gust Speed 30 mph    
Visibility 10 miles    
Events Thunderstorm    
Averages and records for this station are not official NWS values.
T = Trace of Precipitation, MM = Missing Value Source: NWS Daily Summary

Daily Weather History Graph

Daily Weather History Graph

Search for Another Location

Airport or City:

Trip Planner

Search our weather history database for the weather conditions in past years. The results will help you decide how hot, cold, wet, or windy it might be!

Date:

Astronomy

Mar. 27, 2014 Rise Set
Actual Time 7:00 AM CDT 7:21 PM CDT
Civil Twilight 6:35 AM CDT 7:45 PM CDT
Nautical Twilight 6:07 AM CDT 8:14 PM CDT
Astronomical Twilight 5:38 AM CDT 8:43 PM CDT
Moon 4:39 AM CDT (3/27) 4:19 PM CDT (3/27)
Length of Visible Light 13h 10m
Length of Day
12h 21m
Waning Crescent, 13% of the Moon is Illuminated
Mar 27
Waning Crescent
Mar 30
New
Apr 7
First Quarter
Apr 15
Full
Apr 22
Last Quarter

Hourly Weather History & Observations

Time (CDT) Temp. Dew Point Humidity Pressure Visibility Wind Dir Wind Speed Gust Speed Precip Events Conditions
12:15 AM 51.8 °F 35.6 °F 54% 30.14 in 10.0 mi SSE 13.8 mph - N/A   Overcast
12:35 AM 51.8 °F 35.6 °F 54% 30.13 in 10.0 mi SE 13.8 mph 18.4 mph N/A   Overcast
12:55 AM 51.8 °F 35.6 °F 54% 30.13 in 10.0 mi SSE 12.7 mph - N/A   Overcast
1:15 AM 51.8 °F 35.6 °F 54% 30.13 in 10.0 mi SSE 10.4 mph 17.3 mph N/A   Mostly Cloudy
1:35 AM 50.0 °F 35.6 °F 58% 30.12 in 10.0 mi SSE 13.8 mph - N/A   Mostly Cloudy
1:55 AM 50.0 °F 37.4 °F 62% 30.12 in 10.0 mi SSE 10.4 mph - N/A   Mostly Cloudy
2:15 AM 51.8 °F 37.4 °F 58% 30.12 in 10.0 mi SSE 9.2 mph - N/A   Overcast
2:35 AM 51.8 °F 37.4 °F 58% 30.11 in 10.0 mi SSE 12.7 mph - N/A   Overcast
2:55 AM 50.0 °F 37.4 °F 62% 30.10 in 10.0 mi SSE 11.5 mph - N/A   Partly Cloudy
3:15 AM 50.0 °F 37.4 °F 62% 30.09 in 10.0 mi SSE 12.7 mph - N/A   Clear
3:35 AM 48.2 °F 37.4 °F 66% 30.08 in 10.0 mi SSE 11.5 mph 17.3 mph N/A   Clear
3:55 AM 48.2 °F 39.2 °F 71% 30.07 in 10.0 mi SSE 11.5 mph - N/A   Clear
4:15 AM 48.2 °F 39.2 °F 71% 30.06 in 10.0 mi SSE 12.7 mph - N/A   Clear
4:35 AM 48.2 °F 39.2 °F 71% 30.06 in 10.0 mi SSE 10.4 mph - N/A   Clear
4:55 AM 48.2 °F 39.2 °F 71% 30.06 in 10.0 mi SSE 10.4 mph - N/A   Clear
5:15 AM 48.2 °F 39.2 °F 71% 30.06 in 10.0 mi SE 8.1 mph - N/A   Scattered Clouds
5:35 AM 50.0 °F 41.0 °F 71% 30.06 in 10.0 mi SE 9.2 mph - N/A   Mostly Cloudy
5:55 AM 50.0 °F 42.8 °F 76% 30.06 in 10.0 mi SE 11.5 mph 16.1 mph N/A   Overcast
6:15 AM 51.8 °F 42.8 °F 71% 30.06 in 10.0 mi SE 12.7 mph - N/A   Overcast
6:35 AM 51.8 °F 42.8 °F 71% 30.06 in 10.0 mi SSE 13.8 mph - N/A   Overcast
6:55 AM 50.0 °F 42.8 °F 76% 30.06 in 10.0 mi SSE 12.7 mph - N/A   Mostly Cloudy
7:15 AM 51.8 °F 42.8 °F 71% 30.05 in 10.0 mi SE 13.8 mph 18.4 mph N/A   Mostly Cloudy
7:35 AM 51.8 °F 44.6 °F 76% 30.05 in 10.0 mi SE 15.0 mph - N/A   Scattered Clouds
7:55 AM 51.8 °F 44.6 °F 76% 30.06 in 10.0 mi SE 15.0 mph - N/A   Mostly Cloudy
8:15 AM 53.6 °F 44.6 °F 72% 30.06 in 10.0 mi SSE 16.1 mph 23.0 mph N/A   Mostly Cloudy
8:35 AM 53.6 °F 46.4 °F 77% 30.06 in 10.0 mi SSE 12.7 mph 23.0 mph N/A   Overcast
8:55 AM 55.4 °F 46.4 °F 72% 30.06 in 10.0 mi SSE 18.4 mph - N/A   Scattered Clouds
9:15 AM 57.2 °F 48.2 °F 72% 30.06 in 10.0 mi SSE 13.8 mph 23.0 mph N/A   Partly Cloudy
9:35 AM 59.0 °F 48.2 °F 67% 30.06 in 10.0 mi SSE 16.1 mph - N/A   Mostly Cloudy
9:55 AM 60.8 °F 51.8 °F 72% 30.06 in 10.0 mi SSE 15.0 mph 20.7 mph N/A   Mostly Cloudy
10:15 AM 62.6 °F 51.8 °F 68% 30.05 in 10.0 mi SSE 18.4 mph 24.2 mph N/A   Clear
10:35 AM 64.4 °F 53.6 °F 68% 30.05 in 10.0 mi SSE 15.0 mph 25.3 mph N/A   Clear
10:55 AM 66.2 °F 55.4 °F 68% 30.06 in 10.0 mi South 18.4 mph 25.3 mph N/A   Partly Cloudy
11:15 AM 68.0 °F 55.4 °F 64% 30.06 in 10.0 mi SSE 19.6 mph 27.6 mph N/A   Scattered Clouds
11:35 AM 68.0 °F 55.4 °F 64% 30.06 in 10.0 mi South 20.7 mph 25.3 mph N/A   Mostly Cloudy
11:55 AM 68.0 °F 55.4 °F 64% 30.05 in 10.0 mi SSE 17.3 mph - N/A   Overcast
12:15 PM 68.0 °F 55.4 °F 64% 30.05 in 10.0 mi South 18.4 mph 28.8 mph N/A   Overcast
12:35 PM 68.0 °F 55.4 °F 64% 30.04 in 10.0 mi SSE 19.6 mph 27.6 mph N/A   Overcast
12:55 PM 69.8 °F 55.4 °F 60% 30.03 in 10.0 mi SSE 17.3 mph 27.6 mph N/A   Overcast
1:15 PM 69.8 °F 55.4 °F 60% 30.02 in 10.0 mi SSE 23.0 mph 28.8 mph N/A   Overcast
1:35 PM 69.8 °F 57.2 °F 64% 30.02 in 10.0 mi SSE 16.1 mph 24.2 mph N/A   Overcast
1:55 PM 69.8 °F 57.2 °F 64% 30.01 in 10.0 mi SSE 20.7 mph 26.5 mph N/A   Overcast
2:15 PM 69.8 °F 55.4 °F 60% 30.00 in 10.0 mi SSE 16.1 mph 29.9 mph N/A   Overcast
2:35 PM 69.8 °F 55.4 °F 60% 30.00 in 10.0 mi SSE 16.1 mph 27.6 mph N/A   Overcast
2:55 PM 68.0 °F 57.2 °F 68% 29.98 in 10.0 mi SSE 15.0 mph 18.4 mph N/A   Overcast
3:15 PM 68.0 °F 57.2 °F 68% 29.97 in 10.0 mi SSE 19.6 mph 25.3 mph N/A   Overcast
3:35 PM 68.0 °F 57.2 °F 68% 29.96 in 10.0 mi South 17.3 mph 26.5 mph N/A   Overcast
3:55 PM 68.0 °F 57.2 °F 68% 29.96 in 10.0 mi SSE 19.6 mph 28.8 mph N/A   Overcast
4:15 PM 68.0 °F 57.2 °F 68% 29.95 in 10.0 mi South 16.1 mph 26.5 mph N/A   Overcast
4:35 PM 66.2 °F 57.2 °F 73% 29.95 in 10.0 mi South 17.3 mph 27.6 mph N/A   Overcast
4:55 PM 66.2 °F 57.2 °F 73% 29.93 in 10.0 mi SSE 15.0 mph 20.7 mph N/A   Overcast
5:15 PM 66.2 °F 57.2 °F 73% 29.92 in 10.0 mi SSE 16.1 mph 23.0 mph N/A   Overcast
5:35 PM 66.2 °F 57.2 °F 73% 29.93 in 10.0 mi SSE 18.4 mph 23.0 mph N/A   Overcast
5:55 PM 66.2 °F 57.2 °F 73% 29.93 in 10.0 mi SSE 17.3 mph 23.0 mph N/A   Overcast
6:15 PM 66.2 °F 57.2 °F 73% 29.92 in 10.0 mi SSE 19.6 mph 26.5 mph N/A   Overcast
6:35 PM 64.4 °F 57.2 °F 77% 29.92 in 10.0 mi SSE 19.6 mph 25.3 mph N/A   Overcast
6:55 PM 64.4 °F 57.2 °F 77% 29.90 in 10.0 mi SSE 19.6 mph 26.5 mph N/A   Overcast
7:15 PM 64.4 °F 57.2 °F 77% 29.90 in 10.0 mi SSE 15.0 mph - N/A   Overcast
7:35 PM 64.4 °F 57.2 °F 77% 29.90 in 10.0 mi SE 19.6 mph 26.5 mph N/A   Overcast
7:55 PM 64.4 °F 57.2 °F 77% 29.92 in 10.0 mi SSE 17.3 mph - N/A   Overcast
8:15 PM 64.4 °F 57.2 °F 77% 29.92 in 10.0 mi SSE 15.0 mph 23.0 mph N/A Thunderstorm Overcast
8:35 PM 64.4 °F 57.2 °F 77% 29.92 in 10.0 mi SE 15.0 mph 25.3 mph N/A Thunderstorm Thunderstorm
8:55 PM 62.6 °F 57.2 °F 82% 29.92 in 10.0 mi SE 16.1 mph 25.3 mph N/A Thunderstorm Thunderstorm
9:15 PM 62.6 °F 59.0 °F 88% 29.92 in 10.0 mi SSE 16.1 mph 27.6 mph N/A Thunderstorm Overcast
9:35 PM 64.4 °F 59.0 °F 83% 29.93 in 10.0 mi SSE 18.4 mph 27.6 mph 0.02 in Thunderstorm Thunderstorm
9:55 PM 62.6 °F 59.0 °F 88% 29.93 in 10.0 mi SE 11.5 mph 18.4 mph 0.04 in Thunderstorm Overcast
10:15 PM 62.6 °F 59.0 °F 88% 29.90 in 9.0 mi SE 16.1 mph 24.2 mph N/A Thunderstorm Thunderstorm
10:35 PM 62.6 °F 60.8 °F 94% 29.92 in 10.0 mi East 11.5 mph 27.6 mph 0.02 in Thunderstorm Thunderstorm
10:55 PM 62.6 °F 60.8 °F 94% 29.95 in 8.0 mi South 6.9 mph - 0.27 in Thunderstorm Thunderstorm
11:15 PM 62.6 °F 60.8 °F 94% 29.90 in 5.0 mi SE 19.6 mph 26.5 mph 0.66 in Thunderstorm Thunderstorm
11:35 PM 64.4 °F 60.8 °F 88% 29.93 in 10.0 mi South 15.0 mph - 0.69 in Thunderstorm Thunderstorm
11:55 PM 62.6 °F 60.8 °F 94% 29.90 in 10.0 mi East 4.6 mph - 0.82 in Thunderstorm Thunderstorm